Regional Weather Roundup
Issued by NWS

Home | Current Version | Previous Version | Graphics & Text | Print | Product List | Glossary Off
Versions: 1 2 3 4 5 6 7 8 9 10 11 12 13 14 15 16 17 18 19 20 21 22 23 24 25 26 27 28 29 30 31 32 33 34 35 36 37 38 39 40 41 42 43 44 45 46 47 48 49 50

000
ASUS43 KTOP 180159
RWRKS

WEATHER ROUNDUP FOR KANSAS
NATIONAL WEATHER SERVICE GOODLAND KS
800 PM CST WED DEC 17 2014

NOTE:  "FAIR" INDICATES FEW OR NO CLOUDS BELOW 12,000 FEET WITH NO
SIGNIFICANT WEATHER AND/OR OBSTRUCTIONS TO VISIBILITY.

KSZ001>006-013>018-027>032-041>047-180300-
NORTHWEST KANSAS

CITY           SKY/WX    TMP DP  RH WIND       PRES   REMARKS
GOODLAND       FOG       24  23  96 E9        30.05R VSB 1/4
HAYS           CLOUDY    28  19  69 E9        30.12F
HILL CITY      CLOUDY    27  22  81 E12       30.14R WCI  17
RUSSELL        LGT SNOW  27  26  96 E9        30.14S FOG
$$

KSZ061>065-074>080-084>089-180300-
SOUTHWEST KANSAS

CITY           SKY/WX    TMP DP  RH WIND       PRES   REMARKS
DODGE CITY     FLURRIES  30  28  92 SE9       30.07R
ELKHART          N/A     32  25  76 NW7         N/A
GARDEN CITY    LGT SNOW  31  31 100 SE10      30.03R FOG     WCI  22
GREAT BEND     CLOUDY    28  25  86 SE12      30.13F WCI  18
LIBERAL        CLOUDY    37  30  75 SE15      30.02S WCI  28
$$

KSZ066>073-081>083-090>101-180300-
SOUTHEAST KANSAS

CITY           SKY/WX    TMP DP  RH WIND       PRES   REMARKS
CHANUTE        FRZ RAIN  31  29  92 E8        30.23F FOG
COFFEYVILLE    FRZ RAIN  32  31  96 NE7       30.23R FOG
HUTCHINSON     LGT SNOW  31  28  89 E6        30.17R FOG
MEDICINE LODGE   N/A     31  30  96 E5        30.13R
NEWTON         CLOUDY    28  23  80 E7        30.19F
PARSONS        FRZ RAIN  33  31  92 VRB5      30.23S FOG
WICHITA INTL   LGT SNOW  31  28  89 E10       30.17F FOG     WCI  22
WICHITA JABRA  LGT SNOW  29  27  92 E7        30.18F FOG
WICHITA MCCONL FLURRIES  30  28  93 NE6       30.18S
WINFIELD       LGT SNOW  32  30  92 E7        30.19S FOG
$$

KSZ007>012-019>026-033>040-048>060-102>105-180300-
NORTHEAST KANSAS

CITY           SKY/WX    TMP DP  RH WIND       PRES   REMARKS
CONCORDIA      CLOUDY    27  20  75 SE9       30.21R
EMPORIA        LGT SNOW  28  27  96 E8        30.22S VSB 3/4
LAWRENCE       CLOUDY    30  22  72 E3        30.27S
MANHATTAN      CLOUDY    29  22  75 E6        30.23S
OLATHE IND     CLOUDY    30  22  72 SE6       30.25S
OLATHE EXE     CLOUDY    30  21  69 E3        30.24F
SALINA         LGT SNOW  29  26  89 E7        30.20F FOG
TOPEKA BILLARD CLOUDY    31  21  66 E7        30.25F
TOPEKA FORBES  CLOUDY    31  23  72 E5        30.23F
$$



USA.gov is the U.S. government's official web portal to all federal, state and local government web resources and services.